Regional Weather Roundup
Issued by NWS

Home | Current Version | Previous Version | Graphics & Text | Print | Product List | Glossary Off
Versions: 1 2 3 4 5 6 7 8 9 10 11 12 13 14 15 16 17 18 19 20 21 22 23 24 25 26 27 28 29 30 31 32 33 34 35 36 37 38 39 40 41 42 43 44 45 46 47 48 49 50

057
ASUS43 KTOP 210508
RWRKS

WEATHER ROUNDUP FOR KANSAS
NATIONAL WEATHER SERVICE GOODLAND KS
1100 PM CST SAT JAN 20 2018

NOTE:  "FAIR" INDICATES FEW OR NO CLOUDS BELOW 12,000 FEET WITH NO
SIGNIFICANT WEATHER AND/OR OBSTRUCTIONS TO VISIBILITY.

KSZ001>006-013>018-027>032-041>047-210600-
NORTHWEST KANSAS

CITY           SKY/WX    TMP DP  RH WIND       PRES   REMARKS
GOODLAND       PTCLDY    28  26  92 N10       29.76S WCI  19
HAYS           CLOUDY    32  30  92 N5        29.73F
HILL CITY      CLOUDY    35  31  85 N13       29.76F WCI  26
RUSSELL        CLOUDY    35  34  96 N8        29.73S
$$

KSZ061>065-074>080-084>089-210600-
SOUTHWEST KANSAS

CITY           SKY/WX    TMP DP  RH WIND       PRES   REMARKS
DODGE CITY     CLOUDY    31  19  61 NE5       29.68F
ELKHART        MOCLDY    51  22  32 S14       29.66F
GARDEN CITY    CLOUDY    35  20  54 NE16      29.68F WCI  25
GREAT BEND     CLOUDY    28  25  88 NE5       29.71F
LIBERAL        CLOUDY    41  16  36 W8        29.66S
PRATT          CLOUDY    41  33  73 SE7       29.69F
$$

KSZ066>073-081>083-090>101-210600-
SOUTHEAST KANSAS

CITY           SKY/WX    TMP DP  RH WIND       PRES   REMARKS
CHANUTE        CLEAR     50  47  89 S12       29.82F
COFFEYVILLE    MOCLDY    53  50  89 S9        29.83S
HUTCHINSON     CLOUDY    39  37  92 E5        29.73F
MEDICINE LODGE   N/A     66  38  35 E13G21    29.68F
NEWTON         CLOUDY    42  38  85 SE9       29.76F
PARSONS        MOCLDY    53  50  89 S8        29.83S
WICHITA INTL   CLOUDY    45  40  82 SE7       29.74F
WICHITA JABRA  CLOUDY    39  38  96 SE7       29.75F
WICHITA MCCONL CLOUDY    47  39  74 S7        29.75S
WINFIELD       CLEAR     50  44  80 SE8       29.76F
$$

KSZ007>012-019>026-033>040-048>060-102>105-210600-
NORTHEAST KANSAS

CITY           SKY/WX    TMP DP  RH WIND       PRES   REMARKS
CONCORDIA      FOG       33  33 100 E5        29.77S VSB 1/4
EMPORIA        CLEAR     40  39  97 SE10      29.78F WCI  33
LAWRENCE       CLEAR     40  40 100 E5        29.83S FOG
MANHATTAN      CLOUDY    40  39  97 NE6       29.78F FOG
MARYSVILLE     CLOUDY    41  41 100 E9        29.80F
OLATHE IND     CLEAR     43  42  97 SE8       29.84S
OLATHE EXE     CLEAR     41  41 100 SE5       29.83F
SALINA         CLOUDY    38  37  97 SE3       29.75F
TOPEKA BILLARD FOG       37  37 100 CALM      29.82S VSB 1/4
TOPEKA FORBES  CLEAR     42  41  96 SE6       29.81S FOG
$$




USA.gov is the U.S. government's official web portal to all federal, state and local government web resources and services.